[[{"header":{"parameterUnit":"m.s-1","parameterCategory":1,"la1":30.2991,"la2":30.254,"lo1":-89.0895,"lo2":-89.0444,"dy":0.0017,"dx":0.0017,"nx":28,"ny":28,"refTime":"2024-07-21T09:00:00:Z","depth":0,"parameterNumber":2,"parameterNumberName":"U-component_of_WINDS"},"data":[0,0,0,0,0,0,0,0,0,0,0,0,0,0,0,0,0,0,0,0,0,0,0,0,0,0,0,0,0,0,0,0,0,0,0,0,0,0,0,0,0,0,0,0,0,0,0,0,0,0,0,0,0,0,0,0,0,0,2.0145,2.0145,0,2.0161,2.0162,2.0162,2.009,2.0088,2.0086,2.0084,2.0103,2.0105,2.0108,0,0,0,0,0,0,0,0,0,0,0,0,0,2.0053,2.0055,2.0145,2.0145,2.0146,2.0161,2.0162,2.0162,2.0091,2.0088,2.0085,2.0083,2.0102,2.0105,2.0108,0,0,0,0,0,0,0,0,0,0,0,0,0,2.0084,2.0056,2.0145,2.0112,2.0109,2.0161,2.0162,2.0162,2.0091,2.0088,2.0085,2.0082,2.0101,2.0105,2.0108,2.0194,0,0,2.012,2.0121,0,0,0,0,0,0,0,0,2.0082,2.0087,2.0116,2.0114,2.0111,2.012,2.0136,2.0173,2.0092,2.0098,2.0084,2.008,2.0111,2.0114,2.0124,2.0195,2.0196,2.012,2.0122,2.0124,2.0125,0,0,0,0,0,0,0,2.008,2.0086,2.0152,2.0117,2.0114,2.0096,2.0097,2.0143,2.0122,2.0097,2.0092,2.0095,2.0109,2.0121,2.0124,2.0196,2.012,2.0123,2.0125,2.0127,2.0336,2.0339,0,0,0,0,0,0,2.0082,2.0085,2.0151,2.0152,2.0088,2.01,2.0101,2.0121,2.0122,2.0119,2.0097,2.0091,2.0116,2.012,2.0124,2.0223,2.0124,2.0127,2.0129,2.0332,2.0337,2.034,0,0,0,0,0,0,2.008,2.0089,2.015,2.0117,2.0123,2.0105,2.0128,2.0123,2.0134,2.0122,2.0118,2.0113,2.0114,2.0119,2.0177,2.0223,2.0129,2.0132,2.0329,2.0334,2.0338,2.0423,0,0,0,0,0,0,2.0078,2.0088,2.0121,2.0118,2.0125,2.0203,2.0131,2.0125,2.014,2.0132,2.0135,2.0132,2.0112,2.0171,2.018,2.0226,2.0135,2.0324,2.0331,2.0337,2.0416,2.043,2.0442,0,0,0,0,0,2.0075,2.0145,2.0123,2.0131,2.0166,2.0205,2.0209,2.0183,2.0144,2.0176,2.0168,2.0132,2.0217,2.0178,2.0187,2.0235,2.0321,2.0329,2.0336,2.041,2.0427,2.0442,0,0,0,0,0,0,2.0155,2.0144,2.0119,2.0191,2.0199,2.0193,2.0233,2.0203,2.0224,2.0216,2.0183,2.0184,2.0247,2.0247,2.0204,2.0317,2.0262,2.0272,2.0315,2.0331,2.0344,2.0342,2.0138,0,0,0,0,0,2.018,2.0213,2.0202,2.0266,2.0271,2.0252,2.0268,2.0247,2.0255,2.0259,2.0255,2.0264,2.0292,2.0312,2.0337,2.0415,2.0414,2.0453,2.0466,2.0477,2.0485,2.0525,2.0541,2.0365,2.0365,2.0365,0,0,2.0234,2.0232,2.0255,2.0282,2.0286,2.032,2.0255,2.0295,2.032,2.0265,2.0318,2.0316,2.0324,2.0391,2.0421,2.0393,2.0534,2.0486,2.0495,2.0498,2.0534,2.0551,2.0566,2.037,2.0369,2.0368,0,0,2.0349,2.0352,2.0404,2.0409,2.0416,2.0402,2.0415,2.0413,2.0408,2.0461,2.042,2.0449,2.0499,2.0506,2.0517,2.0633,2.06,2.0642,2.0711,2.0749,2.0763,2.0775,2.0815,2.083,2.0651,2.0651,2.0651,0,2.0415,2.0465,2.0435,2.0477,2.0489,2.0439,2.0492,2.0498,2.0514,2.0524,2.0492,2.0552,2.0555,2.0622,2.065,2.0661,2.0673,2.0641,2.0764,2.0775,2.0786,2.0824,2.0839,2.0656,2.0655,2.0655,2.0654,0,2.0545,2.058,2.0622,2.0636,2.0653,2.07,2.0677,2.0698,2.0676,2.0665,2.0719,2.0719,2.0743,2.0758,2.0737,2.0822,2.0804,2.0769,2.0713,2.0809,2.0843,2.0858,2.0663,2.0661,2.066,2.0658,0,0,2.0711,2.0707,2.0722,2.0727,2.073,2.0757,2.0802,2.0824,2.0842,2.0854,2.089,2.0932,2.0899,2.091,2.089,2.0924,2.1013,2.0884,2.0883,2.0906,2.1105,2.1131,2.1148,2.0992,2.0994,2.0997,2.1104,0,2.0822,2.0897,2.087,2.0947,2.0978,2.0931,2.0969,2.0975,2.0966,2.0992,2.0982,2.1012,2.0967,2.0973,2.1005,2.0996,2.1053,2.0988,2.1024,2.1026,2.1022,2.1167,2.1194,2.1296,2.1118,2.112,2.1122,0,2.0962,2.0978,2.1057,2.1053,2.1065,2.11,2.1117,2.1142,2.1148,2.1139,2.1151,2.1122,2.1165,2.111,2.1168,2.1124,2.1138,2.1136,2.1139,2.1141,2.1079,2.1171,2.1328,2.1343,2.1143,2.1141,2.114,0,2.1073,2.1115,2.1166,2.1173,2.117,2.1195,2.1195,2.1197,2.1212,2.1227,2.1236,2.1257,2.1268,2.1285,2.1262,2.1224,2.1323,2.1266,2.1316,2.1317,2.1339,2.1338,2.1499,2.135,2.135,2.1349,2.1349,0,2.1199,2.1249,2.1216,2.1248,2.1302,2.1271,2.1326,2.1321,2.1323,2.1353,2.1314,2.1343,2.1312,2.1338,2.1321,2.1371,2.1377,2.137,2.1365,2.1373,2.1374,2.1381,2.1372,2.1353,2.1352,2.1352,2.1351,0,2.1332,2.1312,2.1365,2.1357,2.1357,2.1397,2.139,2.1419,2.1407,2.1445,2.1453,2.1434,2.1462,2.1442,2.1471,2.1459,2.1524,2.1509,2.1522,2.1517,2.1568,2.1563,2.1738,2.1759,2.1598,2.16,2.1601,0,2.1414,2.145,2.1446,2.1463,2.1465,2.1493,2.1506,2.1478,2.1494,2.1502,2.153,2.1555,2.1573,2.1621,2.161,2.1631,2.1616,2.1676,2.1619,2.1626,2.1615,2.1613,2.1616,2.1687,2.1689,2.1691,2.1692,0,2.1559,2.1547,2.1568,2.1586,2.1603,2.1616,2.1626,2.1642,2.1612,2.1633,2.166,2.1675,2.1703,2.1728,2.1745,2.1745,2.1714,2.171,2.1722,2.1731,2.1736,2.1732,2.1552,2.1706,2.1705,2.1704,2.1703,2.1702,2.1668,2.1697,2.1698,2.1723,2.1727,2.1736,2.1763,2.1753,2.1776,2.1796,2.1778,2.1811,2.1814,2.1834,2.1838,2.1863,2.1838,2.1857,2.1861,2.1866,2.1872,2.1732,2.1866,2.1866,2.1866,2.1865,2.1865,0,2.181,2.1808,2.1831,2.1844,2.1864,2.1832,2.184,2.1859,2.1888,2.1893,2.1912,2.1943,2.1967,2.1957,2.1978,2.2,2.1986,2.2007,2.2004,2.2004,2.1894,2.1881,2.2017,2.2017,2.2017,2.2017,2.2017,2.2017,2.1886,2.1934,2.1922,2.1971,2.1969,2.2,2.2008,2.2016,2.202,2.2056,2.2075,2.2069,2.2068,2.2088,2.2108,2.2104,2.2113,2.2139,2.213,2.2027,2.2012,2.1998,2.1985,2.2141,2.2141,2.2238,2.2239,2.2239]},{"header":{"parameterUnit":"m.s-1","parameterCategory":1,"la1":30.2991,"la2":30.254,"lo1":-89.0895,"lo2":-89.0444,"dy":0.0017,"dx":0.0017,"nx":28,"ny":28,"refTime":"2024-07-21T09:00:00:Z","depth":0,"parameterNumber":3,"parameterNumberName":"V-component_of_WINDS"},"data":[0,0,0,0,0,0,0,0,0,0,0,0,0,0,0,0,0,0,0,0,0,0,0,0,0,0,0,0,0,0,0,0,0,0,0,0,0,0,0,0,0,0,0,0,0,0,0,0,0,0,0,0,0,0,0,0,0,0,4.0947,4.0947,0,4.1028,4.1029,4.1029,4.1008,4.1007,4.1005,4.1003,4.1079,4.1082,4.1085,0,0,0,0,0,0,0,0,0,0,0,0,0,4.0765,4.0768,4.0946,4.0948,4.0949,4.1028,4.1029,4.103,4.1008,4.1006,4.1005,4.1003,4.1077,4.1082,4.1086,0,0,0,0,0,0,0,0,0,0,0,0,0,4.0844,4.0769,4.0946,4.0948,4.0949,4.1027,4.1029,4.103,4.1009,4.1006,4.1004,4.1002,4.1076,4.1081,4.1086,4.1166,0,0,4.1102,4.1105,0,0,0,0,0,0,0,0,4.084,4.0851,4.0946,4.0948,4.0949,4.1006,4.0992,4.1075,4.1009,4.0986,4.1003,4.1001,4.1056,4.1062,4.1083,4.117,4.1173,4.1103,4.1106,4.1108,4.111,0,0,0,0,0,0,0,4.0834,4.0847,4.0978,4.0948,4.0949,4.0941,4.095,4.1008,4.1033,4.0988,4.0986,4.0997,4.1056,4.1078,4.1084,4.1174,4.1103,4.1107,4.111,4.1112,4.1329,4.1331,0,0,0,0,0,0,4.0829,4.0843,4.0976,4.0981,4.0888,4.0947,4.0956,4.099,4.1032,4.1037,4.0999,4.0995,4.107,4.1078,4.1087,4.1182,4.1108,4.1113,4.1116,4.1326,4.1329,4.1332,0,0,0,0,0,0,4.0825,4.0841,4.0972,4.0912,4.0928,4.0952,4.099,4.0992,4.1014,4.1041,4.1044,4.1017,4.1068,4.1079,4.1147,4.1184,4.1115,4.112,4.1323,4.1327,4.1331,4.1373,0,0,0,0,0,0,4.082,4.084,4.0873,4.0913,4.0931,4.1034,4.0992,4.0996,4.1024,4.1021,4.1059,4.1062,4.1067,4.1139,4.1152,4.119,4.1124,4.132,4.1325,4.1329,4.1369,4.1378,4.1387,0,0,0,0,0,4.0814,4.088,4.0874,4.089,4.0973,4.1036,4.1046,4.1053,4.1028,4.1059,4.1076,4.1061,4.1178,4.1146,4.116,4.1201,4.1317,4.1323,4.1329,4.1365,4.1376,4.1386,0,0,0,0,0,0,4.0841,4.0885,4.0879,4.0961,4.0996,4.1032,4.1072,4.1065,4.1105,4.11,4.1104,4.1112,4.1181,4.1198,4.1161,4.1279,4.1244,4.1253,4.1266,4.1277,4.1286,4.128,4.1129,0,0,0,0,0,4.0857,4.0907,4.0942,4.1011,4.1029,4.1048,4.1075,4.1078,4.1112,4.1125,4.1147,4.1179,4.1222,4.1251,4.1293,4.1371,4.1378,4.1406,4.1415,4.1422,4.1429,4.147,4.1482,4.1351,4.1351,4.1351,0,0,4.0889,4.092,4.0951,4.1017,4.1044,4.1093,4.106,4.1113,4.1149,4.1133,4.1198,4.1215,4.125,4.1323,4.1356,4.1339,4.1467,4.143,4.1435,4.1438,4.1477,4.149,4.1501,4.1355,4.1355,4.1354,0,0,4.0974,4.1003,4.1063,4.1091,4.1133,4.1145,4.1159,4.1198,4.1209,4.1275,4.1264,4.1305,4.1381,4.1406,4.1428,4.1522,4.151,4.1536,4.1581,4.1621,4.1631,4.1641,4.1672,4.1684,4.1543,4.1543,4.1543,0,4.1008,4.1085,4.1094,4.1149,4.1177,4.1167,4.1226,4.1252,4.1304,4.1322,4.1303,4.1398,4.1421,4.1499,4.1522,4.1541,4.1555,4.1531,4.163,4.1639,4.1648,4.1678,4.169,4.1546,4.1545,4.1545,4.1545,0,4.1124,4.1177,4.122,4.1273,4.1306,4.1363,4.1378,4.141,4.1409,4.1422,4.1489,4.1516,4.1563,4.1582,4.1581,4.1659,4.1647,4.1629,4.1593,4.1663,4.1691,4.1703,4.155,4.1549,4.1548,4.1547,0,0,4.1226,4.1285,4.13,4.1324,4.1369,4.1409,4.1464,4.1512,4.1539,4.1575,4.1619,4.1684,4.1667,4.1693,4.1694,4.173,4.18,4.1707,4.1707,4.1722,4.1886,4.1898,4.1912,4.1793,4.1795,4.1797,4.1882,0,4.1313,4.1414,4.1423,4.1512,4.1559,4.1551,4.1598,4.1629,4.1644,4.1684,4.1698,4.1743,4.1719,4.1734,4.1769,4.1784,4.1832,4.1778,4.1831,4.1833,4.1821,4.1927,4.194,4.202,4.1893,4.1895,4.1897,0,4.1428,4.1471,4.1565,4.1603,4.1623,4.1666,4.171,4.175,4.1784,4.1792,4.1821,4.1818,4.1871,4.1835,4.1907,4.187,4.1892,4.1903,4.1906,4.1909,4.1868,4.1931,4.2045,4.2057,4.1915,4.1913,4.1912,0,4.1492,4.1572,4.1638,4.1659,4.1705,4.1735,4.1756,4.1788,4.1816,4.1854,4.1871,4.1914,4.1937,4.1969,4.1976,4.1949,4.2048,4.2012,4.2053,4.2053,4.2073,4.2071,4.219,4.209,4.209,4.209,4.2089,0,4.1587,4.1644,4.1667,4.1708,4.1771,4.178,4.1842,4.1859,4.1888,4.193,4.1924,4.1963,4.1971,4.2011,4.2016,4.2074,4.2085,4.209,4.2091,4.209,4.2089,4.2103,4.2097,4.2093,4.2092,4.2091,4.2091,0,4.1668,4.1686,4.1758,4.1797,4.1807,4.1852,4.1884,4.1921,4.1935,4.1987,4.2,4.202,4.2066,4.2078,4.2132,4.2136,4.2204,4.22,4.2193,4.2192,4.2232,4.2227,4.2362,4.238,4.227,4.2271,4.2272,0,4.1727,4.1771,4.1815,4.1844,4.1867,4.1913,4.1942,4.1952,4.1982,4.2025,4.2057,4.2103,4.214,4.2214,4.2231,4.2272,4.2268,4.2313,4.2274,4.2271,4.2266,4.2263,4.2267,4.2319,4.2321,4.2321,4.2322,0,4.1829,4.1836,4.188,4.1927,4.1962,4.1999,4.2034,4.2057,4.2071,4.2105,4.2154,4.2183,4.2239,4.2284,4.2325,4.2343,4.2334,4.2335,4.2346,4.2345,4.2338,4.2341,4.2211,4.2331,4.233,4.233,4.2329,4.2329,4.1899,4.1938,4.1975,4.2024,4.2052,4.2084,4.2121,4.214,4.2182,4.2231,4.2233,4.2286,4.2317,4.2372,4.2392,4.2431,4.2417,4.2434,4.2438,4.2441,4.2444,4.2334,4.2439,4.2438,4.2438,4.2438,4.2438,0,4.1999,4.2023,4.2068,4.2118,4.2156,4.2148,4.2186,4.2217,4.2264,4.2295,4.2333,4.2388,4.2431,4.2453,4.2495,4.2522,4.2519,4.2532,4.2529,4.2533,4.2455,4.244,4.2534,4.2534,4.2534,4.2534,4.2534,4.2534,4.2056,4.212,4.2131,4.2209,4.2231,4.2285,4.2307,4.2336,4.2361,4.2423,4.2461,4.2475,4.2502,4.2546,4.2585,4.259,4.2605,4.262,4.2623,4.2549,4.2539,4.2529,4.2516,4.2624,4.2624,4.2697,4.2698,4.2699]}]]